Time,TemperatureF,DewpointF,PressureIn,WindDirection,WindDirectionDegrees,WindSpeedMPH,WindSpeedGustMPH,Humidity,HourlyPrecipIn,Conditions,Clouds,dailyrainin,SoftwareType,DateUTC
2013-07-03 00:00:00,65.7,43.8,29.90,SE,135,2.0,-999.0,45,0.00,,,0.00,Wunderground v.1.15,2013-07-03 05:00:00,
2013-07-03 00:05:00,65.7,43.8,29.90,SE,135,2.0,-999.0,45,0.00,,,0.00,Wunderground v.1.15,2013-07-03 05:05:00,
2013-07-03 00:10:00,65.7,43.8,29.90,SE,135,2.0,-999.0,45,0.00,,,0.00,Wunderground v.1.15,2013-07-03 05:10:00,
2013-07-03 00:15:00,65.7,43.8,29.90,SE,135,2.0,-999.0,45,0.00,,,0.00,Wunderground v.1.15,2013-07-03 05:15:00,
2013-07-03 00:20:00,65.7,43.8,29.90,SE,135,2.0,-999.0,45,0.00,,,0.00,Wunderground v.1.15,2013-07-03 05:20:00,
2013-07-03 00:25:00,65.7,43.8,29.90,SE,135,2.0,-999.0,45,0.00,,,0.00,Wunderground v.1.15,2013-07-03 05:25:00,
2013-07-03 00:30:00,65.7,43.8,29.90,SE,135,2.0,-999.0,45,0.00,,,0.00,Wunderground v.1.15,2013-07-03 05:30:00,
2013-07-03 00:35:00,65.7,43.8,29.90,SE,135,2.0,-999.0,45,0.00,,,0.00,Wunderground v.1.15,2013-07-03 05:35:00,
2013-07-03 00:40:00,65.7,43.8,29.90,SE,135,2.0,-999.0,45,0.00,,,0.00,Wunderground v.1.15,2013-07-03 05:40:00,
2013-07-03 00:45:00,64.2,44.1,29.90,SE,135,3.0,-999.0,48,0.00,,,0.00,Wunderground v.1.15,2013-07-03 05:45:00,
2013-07-03 00:50:00,64.2,44.1,29.90,SE,135,3.0,-999.0,48,0.00,,,0.00,Wunderground v.1.15,2013-07-03 05:50:00,
2013-07-03 00:55:00,64.2,44.1,29.90,SE,135,3.0,-999.0,48,0.00,,,0.00,Wunderground v.1.15,2013-07-03 05:55:00,
2013-07-03 01:00:00,64.2,44.1,29.90,SE,135,3.0,-999.0,48,0.00,,,0.00,Wunderground v.1.15,2013-07-03 06:00:00,
2013-07-03 01:05:00,64.2,44.1,29.90,SE,135,3.0,-999.0,48,0.00,,,0.00,Wunderground v.1.15,2013-07-03 06:05:00,
2013-07-03 01:10:00,64.2,44.1,29.90,SE,135,3.0,-999.0,48,0.00,,,0.00,Wunderground v.1.15,2013-07-03 06:10:00,
2013-07-03 01:15:00,61.6,43.8,29.90,SE,135,1.0,-999.0,52,0.00,,,0.00,Wunderground v.1.15,2013-07-03 06:15:00,
2013-07-03 01:20:00,61.6,43.8,29.90,SE,135,1.0,-999.0,52,0.00,,,0.00,Wunderground v.1.15,2013-07-03 06:20:00,
2013-07-03 01:25:00,61.6,43.8,29.90,SE,135,1.0,-999.0,52,0.00,,,0.00,Wunderground v.1.15,2013-07-03 06:25:00,
2013-07-03 01:30:00,61.6,43.8,29.90,SE,135,1.0,-999.0,52,0.00,,,0.00,Wunderground v.1.15,2013-07-03 06:30:00,
2013-07-03 01:35:00,61.6,43.8,29.90,SE,135,1.0,-999.0,52,0.00,,,0.00,Wunderground v.1.15,2013-07-03 06:35:00,
2013-07-03 01:40:00,61.6,43.8,29.90,SE,135,1.0,-999.0,52,0.00,,,0.00,Wunderground v.1.15,2013-07-03 06:40:00,
2013-07-03 01:45:00,61.0,44.2,29.90,NE,45,2.0,-999.0,54,0.00,,,0.00,Wunderground v.1.15,2013-07-03 06:45:00,
2013-07-03 01:50:00,61.0,44.2,29.90,NE,45,2.0,-999.0,54,0.00,,,0.00,Wunderground v.1.15,2013-07-03 06:50:00,
2013-07-03 01:55:00,61.0,44.2,29.90,NE,45,2.0,-999.0,54,0.00,,,0.00,Wunderground v.1.15,2013-07-03 06:55:00,
2013-07-03 02:00:00,61.0,44.2,29.90,NE,45,2.0,-999.0,54,0.00,,,0.00,Wunderground v.1.15,2013-07-03 07:00:00,
2013-07-03 02:05:00,61.0,44.2,29.90,NE,45,2.0,-999.0,54,0.00,,,0.00,Wunderground v.1.15,2013-07-03 07:05:00,
2013-07-03 02:10:00,61.0,44.2,29.90,NE,45,2.0,-999.0,54,0.00,,,0.00,Wunderground v.1.15,2013-07-03 07:10:00,
2013-07-03 02:15:00,59.8,44.1,29.90,NE,45,1.0,-999.0,56,0.00,,,0.00,Wunderground v.1.15,2013-07-03 07:15:00,
2013-07-03 02:20:00,59.8,44.1,29.90,NE,45,1.0,-999.0,56,0.00,,,0.00,Wunderground v.1.15,2013-07-03 07:20:00,
2013-07-03 02:25:00,59.8,44.1,29.90,NE,45,1.0,-999.0,56,0.00,,,0.00,Wunderground v.1.15,2013-07-03 07:25:00,
2013-07-03 02:30:00,59.8,44.1,29.90,NE,45,1.0,-999.0,56,0.00,,,0.00,Wunderground v.1.15,2013-07-03 07:30:00,
2013-07-03 02:35:00,59.8,44.1,29.90,NE,45,1.0,-999.0,56,0.00,,,0.00,Wunderground v.1.15,2013-07-03 07:35:00,
2013-07-03 02:40:00,59.8,44.1,29.90,NE,45,1.0,-999.0,56,0.00,,,0.00,Wunderground v.1.15,2013-07-03 07:40:00,
2013-07-03 02:45:00,58.7,44.0,29.90,NE,45,1.0,-999.0,58,0.00,,,0.00,Wunderground v.1.15,2013-07-03 07:45:00,
2013-07-03 02:50:00,58.7,44.0,29.90,NE,45,1.0,-999.0,58,0.00,,,0.00,Wunderground v.1.15,2013-07-03 07:50:00,
2013-07-03 02:55:00,58.7,44.0,29.90,NE,45,1.0,-999.0,58,0.00,,,0.00,Wunderground v.1.15,2013-07-03 07:55:00,
2013-07-03 03:00:00,58.7,44.0,29.90,NE,45,1.0,-999.0,58,0.00,,,0.00,Wunderground v.1.15,2013-07-03 08:00:00,
2013-07-03 03:05:00,58.7,44.0,29.90,NE,45,1.0,-999.0,58,0.00,,,0.00,Wunderground v.1.15,2013-07-03 08:05:00,
2013-07-03 03:10:00,58.7,44.0,29.90,NE,45,1.0,-999.0,58,0.00,,,0.00,Wunderground v.1.15,2013-07-03 08:10:00,
2013-07-03 03:15:00,59.0,43.3,29.89,NE,45,1.0,-999.0,56,0.00,,,0.00,Wunderground v.1.15,2013-07-03 08:15:00,
2013-07-03 03:20:00,59.0,43.3,29.89,NE,45,1.0,-999.0,56,0.00,,,0.00,Wunderground v.1.15,2013-07-03 08:20:00,
2013-07-03 03:25:00,59.0,43.3,29.89,NE,45,1.0,-999.0,56,0.00,,,0.00,Wunderground v.1.15,2013-07-03 08:25:00,
2013-07-03 03:30:00,59.0,43.3,29.89,NE,45,1.0,-999.0,56,0.00,,,0.00,Wunderground v.1.15,2013-07-03 08:30:00,
2013-07-03 03:35:00,59.0,43.3,29.89,NE,45,1.0,-999.0,56,0.00,,,0.00,Wunderground v.1.15,2013-07-03 08:35:00,
2013-07-03 03:40:00,59.0,43.3,29.89,NE,45,1.0,-999.0,56,0.00,,,0.00,Wunderground v.1.15,2013-07-03 08:40:00,
2013-07-03 03:45:00,59.9,43.2,29.88,NE,45,3.0,-999.0,54,0.00,,,0.00,Wunderground v.1.15,2013-07-03 08:45:00,
2013-07-03 03:50:00,59.9,43.2,29.88,NE,45,3.0,-999.0,54,0.00,,,0.00,Wunderground v.1.15,2013-07-03 08:50:00,
2013-07-03 03:55:00,59.9,43.2,29.88,NE,45,3.0,-999.0,54,0.00,,,0.00,Wunderground v.1.15,2013-07-03 08:55:00,
2013-07-03 04:00:00,59.9,43.2,29.88,NE,45,3.0,-999.0,54,0.00,,,0.00,Wunderground v.1.15,2013-07-03 09:00:00,
2013-07-03 04:05:00,59.9,43.2,29.88,NE,45,3.0,-999.0,54,0.00,,,0.00,Wunderground v.1.15,2013-07-03 09:05:00,
2013-07-03 04:10:00,59.9,43.2,29.88,NE,45,3.0,-999.0,54,0.00,,,0.00,Wunderground v.1.15,2013-07-03 09:10:00,
2013-07-03 04:15:00,63.3,42.7,29.89,SE,135,3.0,-999.0,47,0.00,,,0.00,Wunderground v.1.15,2013-07-03 09:15:00,
2013-07-03 04:20:00,63.3,42.7,29.89,SE,135,3.0,-999.0,47,0.00,,,0.00,Wunderground v.1.15,2013-07-03 09:20:00,
2013-07-03 04:25:00,63.3,42.7,29.89,SE,135,3.0,-999.0,47,0.00,,,0.00,Wunderground v.1.15,2013-07-03 09:25:00,
2013-07-03 04:30:00,63.3,42.7,29.89,SE,135,3.0,-999.0,47,0.00,,,0.00,Wunderground v.1.15,2013-07-03 09:30:00,
2013-07-03 04:35:00,63.3,42.7,29.89,SE,135,3.0,-999.0,47,0.00,,,0.00,Wunderground v.1.15,2013-07-03 09:35:00,
2013-07-03 04:40:00,63.3,42.7,29.89,SE,135,3.0,-999.0,47,0.00,,,0.00,Wunderground v.1.15,2013-07-03 09:40:00,
2013-07-03 04:45:00,62.9,42.9,29.89,SE,135,3.0,-999.0,48,0.00,,,0.00,Wunderground v.1.15,2013-07-03 09:45:00,
2013-07-03 04:50:00,62.9,42.9,29.89,SE,135,3.0,-999.0,48,0.00,,,0.00,Wunderground v.1.15,2013-07-03 09:50:00,
2013-07-03 04:55:00,62.9,42.9,29.89,SE,135,3.0,-999.0,48,0.00,,,0.00,Wunderground v.1.15,2013-07-03 09:55:00,
2013-07-03 05:00:00,62.9,42.9,29.89,SE,135,3.0,-999.0,48,0.00,,,0.00,Wunderground v.1.15,2013-07-03 10:00:00,
2013-07-03 05:05:00,62.9,42.9,29.89,SE,135,3.0,-999.0,48,0.00,,,0.00,Wunderground v.1.15,2013-07-03 10:05:00,
2013-07-03 05:10:00,62.9,42.9,29.89,SE,135,3.0,-999.0,48,0.00,,,0.00,Wunderground v.1.15,2013-07-03 10:10:00,
2013-07-03 05:15:00,58.9,43.2,29.87,SE,135,1.0,-999.0,56,0.00,,,0.00,Wunderground v.1.15,2013-07-03 10:15:00,
2013-07-03 05:20:00,58.9,43.2,29.87,SE,135,1.0,-999.0,56,0.00,,,0.00,Wunderground v.1.15,2013-07-03 10:20:00,
2013-07-03 05:25:00,58.9,43.2,29.87,SE,135,1.0,-999.0,56,0.00,,,0.00,Wunderground v.1.15,2013-07-03 10:25:00,
2013-07-03 05:30:00,58.9,43.2,29.87,SE,135,1.0,-999.0,56,0.00,,,0.00,Wunderground v.1.15,2013-07-03 10:30:00,
2013-07-03 05:35:00,58.9,43.2,29.87,SE,135,1.0,-999.0,56,0.00,,,0.00,Wunderground v.1.15,2013-07-03 10:35:00,
2013-07-03 05:40:00,58.9,43.2,29.87,SE,135,1.0,-999.0,56,0.00,,,0.00,Wunderground v.1.15,2013-07-03 10:40:00,
2013-07-03 05:45:00,56.4,44.4,29.87,SE,135,1.0,-999.0,64,0.00,,,0.00,Wunderground v.1.15,2013-07-03 10:45:00,
2013-07-03 05:50:00,56.4,44.4,29.87,SE,135,1.0,-999.0,64,0.00,,,0.00,Wunderground v.1.15,2013-07-03 10:50:00,
2013-07-03 05:55:00,56.4,44.4,29.87,SE,135,1.0,-999.0,64,0.00,,,0.00,Wunderground v.1.15,2013-07-03 10:55:00,
2013-07-03 06:00:00,56.4,44.4,29.87,SE,135,1.0,-999.0,64,0.00,,,0.00,Wunderground v.1.15,2013-07-03 11:00:00,
2013-07-03 06:05:00,56.4,44.4,29.87,SE,135,1.0,-999.0,64,0.00,,,0.00,Wunderground v.1.15,2013-07-03 11:05:00,
2013-07-03 06:10:00,56.4,44.4,29.87,SE,135,1.0,-999.0,64,0.00,,,0.00,Wunderground v.1.15,2013-07-03 11:10:00,
2013-07-03 06:15:00,55.8,43.8,29.87,SE,135,2.0,-999.0,64,0.00,,,0.00,Wunderground v.1.15,2013-07-03 11:15:00,
2013-07-03 06:20:00,55.8,43.8,29.87,SE,135,2.0,-999.0,64,0.00,,,0.00,Wunderground v.1.15,2013-07-03 11:20:00,
2013-07-03 06:25:00,55.8,43.8,29.87,SE,135,2.0,-999.0,64,0.00,,,0.00,Wunderground v.1.15,2013-07-03 11:25:00,
2013-07-03 06:30:00,55.8,43.8,29.87,SE,135,2.0,-999.0,64,0.00,,,0.00,Wunderground v.1.15,2013-07-03 11:30:00,
2013-07-03 06:35:00,55.8,43.8,29.87,SE,135,2.0,-999.0,64,0.00,,,0.00,Wunderground v.1.15,2013-07-03 11:35:00,
2013-07-03 06:40:00,55.8,43.8,29.87,SE,135,2.0,-999.0,64,0.00,,,0.00,Wunderground v.1.15,2013-07-03 11:40:00,
2013-07-03 06:45:00,58.6,43.9,29.88,SE,135,2.0,-999.0,58,0.00,,,0.00,Wunderground v.1.15,2013-07-03 11:45:00,
2013-07-03 06:50:00,58.6,43.9,29.88,SE,135,2.0,-999.0,58,0.00,,,0.00,Wunderground v.1.15,2013-07-03 11:50:00,
2013-07-03 06:55:00,58.6,43.9,29.88,SE,135,2.0,-999.0,58,0.00,,,0.00,Wunderground v.1.15,2013-07-03 11:55:00,
2013-07-03 07:00:00,58.6,43.9,29.88,SE,135,2.0,-999.0,58,0.00,,,0.00,Wunderground v.1.15,2013-07-03 12:00:00,
2013-07-03 07:05:00,58.6,43.9,29.88,SE,135,2.0,-999.0,58,0.00,,,0.00,Wunderground v.1.15,2013-07-03 12:05:00,
2013-07-03 07:10:00,58.6,43.9,29.88,SE,135,2.0,-999.0,58,0.00,,,0.00,Wunderground v.1.15,2013-07-03 12:10:00,
2013-07-03 07:15:00,58.6,46.0,29.89,SSE,158,1.0,-999.0,63,0.00,,,0.00,Wunderground v.1.15,2013-07-03 12:15:00,
2013-07-03 07:20:00,58.6,46.0,29.89,SSE,158,1.0,-999.0,63,0.00,,,0.00,Wunderground v.1.15,2013-07-03 12:20:00,
2013-07-03 07:25:00,58.6,46.0,29.89,SSE,158,1.0,-999.0,63,0.00,,,0.00,Wunderground v.1.15,2013-07-03 12:25:00,
2013-07-03 07:30:00,58.6,46.0,29.89,SSE,158,1.0,-999.0,63,0.00,,,0.00,Wunderground v.1.15,2013-07-03 12:30:00,
2013-07-03 07:35:00,58.6,46.0,29.89,SSE,158,1.0,-999.0,63,0.00,,,0.00,Wunderground v.1.15,2013-07-03 12:35:00,
2013-07-03 07:40:00,58.6,46.0,29.89,SSE,158,1.0,-999.0,63,0.00,,,0.00,Wunderground v.1.15,2013-07-03 12:40:00,
2013-07-03 07:45:00,64.4,46.9,29.90,SSE,158,0.0,-999.0,53,0.00,,,0.00,Wunderground v.1.15,2013-07-03 12:45:00,
2013-07-03 07:50:00,64.4,46.9,29.90,SSE,158,0.0,-999.0,53,0.00,,,0.00,Wunderground v.1.15,2013-07-03 12:50:00,
2013-07-03 07:55:00,64.4,46.9,29.90,SSE,158,0.0,-999.0,53,0.00,,,0.00,Wunderground v.1.15,2013-07-03 12:55:00,
2013-07-03 08:00:00,64.4,46.9,29.90,SSE,158,0.0,-999.0,53,0.00,,,0.00,Wunderground v.1.15,2013-07-03 13:00:00,
2013-07-03 08:05:00,64.4,46.9,29.90,SSE,158,0.0,-999.0,53,0.00,,,0.00,Wunderground v.1.15,2013-07-03 13:05:00,
2013-07-03 08:10:00,64.4,46.9,29.90,SSE,158,0.0,-999.0,53,0.00,,,0.00,Wunderground v.1.15,2013-07-03 13:10:00,
2013-07-03 08:15:00,71.0,47.4,29.91,SSE,158,0.0,-999.0,43,0.00,,,0.00,Wunderground v.1.15,2013-07-03 13:15:00,
2013-07-03 08:20:00,71.0,47.4,29.91,SSE,158,0.0,-999.0,43,0.00,,,0.00,Wunderground v.1.15,2013-07-03 13:20:00,
2013-07-03 08:25:00,71.0,47.4,29.91,SSE,158,0.0,-999.0,43,0.00,,,0.00,Wunderground v.1.15,2013-07-03 13:25:00,
2013-07-03 08:30:00,71.0,47.4,29.91,SSE,158,0.0,-999.0,43,0.00,,,0.00,Wunderground v.1.15,2013-07-03 13:30:00,
2013-07-03 08:35:00,71.0,47.4,29.91,SSE,158,0.0,-999.0,43,0.00,,,0.00,Wunderground v.1.15,2013-07-03 13:35:00,
2013-07-03 08:40:00,71.0,47.4,29.91,SSE,158,0.0,-999.0,43,0.00,,,0.00,Wunderground v.1.15,2013-07-03 13:40:00,
2013-07-03 08:45:00,74.0,47.5,29.91,ESE,113,2.0,-999.0,39,0.00,,,0.00,Wunderground v.1.15,2013-07-03 13:45:00,
2013-07-03 08:50:00,74.0,47.5,29.91,ESE,113,2.0,-999.0,39,0.00,,,0.00,Wunderground v.1.15,2013-07-03 13:50:00,
2013-07-03 08:55:00,74.0,47.5,29.91,ESE,113,2.0,-999.0,39,0.00,,,0.00,Wunderground v.1.15,2013-07-03 13:55:00,
2013-07-03 09:00:00,74.0,47.5,29.91,ESE,113,2.0,-999.0,39,0.00,,,0.00,Wunderground v.1.15,2013-07-03 14:00:00,
2013-07-03 09:05:00,74.0,47.5,29.91,ESE,113,2.0,-999.0,39,0.00,,,0.00,Wunderground v.1.15,2013-07-03 14:05:00,
2013-07-03 09:10:00,74.0,47.5,29.91,ESE,113,2.0,-999.0,39,0.00,,,0.00,Wunderground v.1.15,2013-07-03 14:10:00,
2013-07-03 09:15:00,77.2,48.9,29.91,ESE,113,1.0,-999.0,37,0.00,,,0.00,Wunderground v.1.15,2013-07-03 14:15:00,
2013-07-03 09:20:00,77.2,48.9,29.91,ESE,113,1.0,-999.0,37,0.00,,,0.00,Wunderground v.1.15,2013-07-03 14:20:00,
2013-07-03 09:25:00,77.2,48.9,29.91,ESE,113,1.0,-999.0,37,0.00,,,0.00,Wunderground v.1.15,2013-07-03 14:25:00,
2013-07-03 09:30:00,77.2,48.9,29.91,ESE,113,1.0,-999.0,37,0.00,,,0.00,Wunderground v.1.15,2013-07-03 14:30:00,
2013-07-03 09:35:00,77.2,48.9,29.91,ESE,113,1.0,-999.0,37,0.00,,,0.00,Wunderground v.1.15,2013-07-03 14:35:00,
2013-07-03 09:40:00,77.2,48.9,29.91,ESE,113,1.0,-999.0,37,0.00,,,0.00,Wunderground v.1.15,2013-07-03 14:40:00,
2013-07-03 09:45:00,78.6,47.9,29.90,South,180,4.0,-999.0,34,0.00,,,0.00,Wunderground v.1.15,2013-07-03 14:45:00,
2013-07-03 09:50:00,78.6,47.9,29.90,South,180,4.0,-999.0,34,0.00,,,0.00,Wunderground v.1.15,2013-07-03 14:50:00,
2013-07-03 09:55:00,78.6,47.9,29.90,South,180,4.0,-999.0,34,0.00,,,0.00,Wunderground v.1.15,2013-07-03 14:55:00,
2013-07-03 10:00:00,78.6,47.9,29.90,South,180,4.0,-999.0,34,0.00,,,0.00,Wunderground v.1.15,2013-07-03 15:00:00,
2013-07-03 10:05:00,78.6,47.9,29.90,South,180,4.0,-999.0,34,0.00,,,0.00,Wunderground v.1.15,2013-07-03 15:05:00,
2013-07-03 10:10:00,78.6,47.9,29.90,South,180,4.0,-999.0,34,0.00,,,0.00,Wunderground v.1.15,2013-07-03 15:10:00,
2013-07-03 10:15:00,81.5,47.9,29.90,South,180,6.0,-999.0,31,0.00,,,0.00,Wunderground v.1.15,2013-07-03 15:15:00,
2013-07-03 10:20:00,81.5,47.9,29.90,South,180,6.0,-999.0,31,0.00,,,0.00,Wunderground v.1.15,2013-07-03 15:20:00,
2013-07-03 10:25:00,81.5,47.9,29.90,South,180,6.0,-999.0,31,0.00,,,0.00,Wunderground v.1.15,2013-07-03 15:25:00,
2013-07-03 10:30:00,81.5,47.9,29.90,South,180,6.0,-999.0,31,0.00,,,0.00,Wunderground v.1.15,2013-07-03 15:30:00,
2013-07-03 10:35:00,81.5,47.9,29.90,South,180,6.0,-999.0,31,0.00,,,0.00,Wunderground v.1.15,2013-07-03 15:35:00,
2013-07-03 10:40:00,81.5,47.9,29.90,South,180,6.0,-999.0,31,0.00,,,0.00,Wunderground v.1.15,2013-07-03 15:40:00,
2013-07-03 10:45:00,82.9,46.4,29.89,South,180,5.0,-999.0,28,0.00,,,0.00,Wunderground v.1.15,2013-07-03 15:45:00,
2013-07-03 10:50:00,82.9,46.4,29.89,South,180,5.0,-999.0,28,0.00,,,0.00,Wunderground v.1.15,2013-07-03 15:50:00,
2013-07-03 10:55:00,82.9,46.4,29.89,South,180,5.0,-999.0,28,0.00,,,0.00,Wunderground v.1.15,2013-07-03 15:55:00,
2013-07-03 11:00:00,82.9,46.4,29.89,South,180,5.0,-999.0,28,0.00,,,0.00,Wunderground v.1.15,2013-07-03 16:00:00,
2013-07-03 11:05:00,82.9,46.4,29.89,South,180,5.0,-999.0,28,0.00,,,0.00,Wunderground v.1.15,2013-07-03 16:05:00,
2013-07-03 11:10:00,82.9,46.4,29.89,South,180,5.0,-999.0,28,0.00,,,0.00,Wunderground v.1.15,2013-07-03 16:10:00,
2013-07-03 11:15:00,84.8,45.1,29.89,SW,225,4.0,-999.0,25,0.00,,,0.00,Wunderground v.1.15,2013-07-03 16:15:00,
2013-07-03 11:20:00,84.8,45.1,29.89,SW,225,4.0,-999.0,25,0.00,,,0.00,Wunderground v.1.15,2013-07-03 16:20:00,
2013-07-03 11:25:00,84.8,45.1,29.89,SW,225,4.0,-999.0,25,0.00,,,0.00,Wunderground v.1.15,2013-07-03 16:25:00,
2013-07-03 11:30:00,84.8,45.1,29.89,SW,225,4.0,-999.0,25,0.00,,,0.00,Wunderground v.1.15,2013-07-03 16:30:00,
2013-07-03 11:35:00,84.8,45.1,29.89,SW,225,4.0,-999.0,25,0.00,,,0.00,Wunderground v.1.15,2013-07-03 16:35:00,
2013-07-03 11:40:00,84.8,45.1,29.89,SW,225,4.0,-999.0,25,0.00,,,0.00,Wunderground v.1.15,2013-07-03 16:40:00,
2013-07-03 11:45:00,88.1,43.2,29.88,NNW,338,2.0,-999.0,21,0.00,,,0.00,Wunderground v.1.15,2013-07-03 16:45:00,
2013-07-03 11:50:00,88.1,43.2,29.88,NNW,338,2.0,-999.0,21,0.00,,,0.00,Wunderground v.1.15,2013-07-03 16:50:00,
2013-07-03 11:55:00,88.1,43.2,29.88,NNW,338,2.0,-999.0,21,0.00,,,0.00,Wunderground v.1.15,2013-07-03 16:55:00,
2013-07-03 12:00:00,88.1,43.2,29.88,NNW,338,2.0,-999.0,21,0.00,,,0.00,Wunderground v.1.15,2013-07-03 17:00:00,
2013-07-03 12:05:00,88.1,43.2,29.88,NNW,338,2.0,-999.0,21,0.00,,,0.00,Wunderground v.1.15,2013-07-03 17:05:00,
2013-07-03 12:10:00,88.1,43.2,29.88,NNW,338,2.0,-999.0,21,0.00,,,0.00,Wunderground v.1.15,2013-07-03 17:10:00,
2013-07-03 12:15:00,86.9,42.3,29.87,ESE,113,7.0,-999.0,21,0.00,,,0.00,Wunderground v.1.15,2013-07-03 17:15:00,
2013-07-03 12:20:00,86.9,42.3,29.87,ESE,113,7.0,-999.0,21,0.00,,,0.00,Wunderground v.1.15,2013-07-03 17:20:00,
2013-07-03 12:25:00,86.9,42.3,29.87,ESE,113,7.0,-999.0,21,0.00,,,0.00,Wunderground v.1.15,2013-07-03 17:25:00,
2013-07-03 12:30:00,86.9,42.3,29.87,ESE,113,7.0,-999.0,21,0.00,,,0.00,Wunderground v.1.15,2013-07-03 17:30:00,
2013-07-03 12:35:00,86.9,42.3,29.87,ESE,113,7.0,-999.0,21,0.00,,,0.00,Wunderground v.1.15,2013-07-03 17:35:00,
2013-07-03 12:40:00,86.9,42.3,29.87,ESE,113,7.0,-999.0,21,0.00,,,0.00,Wunderground v.1.15,2013-07-03 17:40:00,
2013-07-03 12:45:00,88.2,43.3,29.86,ENE,68,4.0,-999.0,21,0.00,,,0.00,Wunderground v.1.15,2013-07-03 17:45:00,
2013-07-03 12:50:00,88.2,43.3,29.86,ENE,68,4.0,-999.0,21,0.00,,,0.00,Wunderground v.1.15,2013-07-03 17:50:00,
2013-07-03 12:55:00,88.2,43.3,29.86,ENE,68,4.0,-999.0,21,0.00,,,0.00,Wunderground v.1.15,2013-07-03 17:55:00,
2013-07-03 13:00:00,88.2,43.3,29.86,ENE,68,4.0,-999.0,21,0.00,,,0.00,Wunderground v.1.15,2013-07-03 18:00:00,
2013-07-03 13:05:00,88.2,43.3,29.86,ENE,68,4.0,-999.0,21,0.00,,,0.00,Wunderground v.1.15,2013-07-03 18:05:00,
2013-07-03 18:10:00,90.8,38.4,29.74,ESE,115,6.0,7.0,16,0.00,,,0.00,Wunderground v.1.15,2013-07-03 23:10:00,
2013-07-03 18:20:00,90.4,38.1,29.74,ESE,119,5.0,5.0,16,0.00,,,0.00,Wunderground v.1.15,2013-07-03 23:20:00,
2013-07-03 18:30:00,90.3,38.0,29.74,SSE,152,4.0,8.0,16,0.00,,,0.00,Wunderground v.1.15,2013-07-03 23:30:00,
2013-07-03 18:40:00,90.4,38.1,29.74,SE,132,6.0,6.0,16,0.00,,,0.00,Wunderground v.1.15,2013-07-03 23:40:00,
2013-07-03 19:00:00,90.2,37.9,29.74,SE,146,6.0,8.0,16,0.00,,,0.00,Wunderground v.1.15,2013-07-04 00:00:00,
2013-07-03 19:10:00,89.8,37.6,29.74,SE,125,4.0,4.0,16,0.00,,,0.00,Wunderground v.1.15,2013-07-04 00:10:00,
2013-07-03 19:30:00,89.1,37.1,29.74,SE,127,2.0,15.0,16,0.00,,,0.00,Wunderground v.1.15,2013-07-04 00:30:00,
2013-07-03 19:40:00,88.8,36.8,29.74,East,92,5.0,15.0,16,0.00,,,0.00,Wunderground v.1.15,2013-07-04 00:40:00,
2013-07-03 19:50:00,88.5,38.1,29.74,SE,138,4.0,15.0,17,0.00,,,0.00,Wunderground v.1.15,2013-07-04 00:50:00,
2013-07-03 20:10:00,87.1,39.8,29.74,East,92,4.0,15.0,19,0.00,,,0.00,Wunderground v.1.15,2013-07-04 01:10:00,
2013-07-03 20:50:00,83.9,41.0,29.74,ESE,112,5.0,5.0,22,0.00,,,0.00,Wunderground v.1.15,2013-07-04 01:50:00,
2013-07-03 21:00:00,83.3,41.6,29.74,East,90,5.0,15.0,23,0.00,,,0.00,Wunderground v.1.15,2013-07-04 02:00:00,
2013-07-03 22:30:00,79.4,41.5,29.75,East,93,5.0,6.0,26,0.00,,,0.00,Wunderground v.1.15,2013-07-04 03:30:00,
2013-07-03 23:30:00,77.3,41.6,29.77,South,186,3.0,11.0,28,0.00,,,0.00,Wunderground v.1.15,2013-07-04 04:30:00,
2013-07-03 23:35:00,77.2,41.6,29.77,South,180,3.0,-999.0,28,0.00,,,0.00,Wunderground v.1.15,2013-07-04 04:35:00,
2013-07-03 23:40:00,77.2,41.6,29.77,South,180,3.0,-999.0,28,0.00,,,0.00,Wunderground v.1.15,2013-07-04 04:40:00,
2013-07-03 23:45:00,74.8,41.3,29.78,South,180,2.0,-999.0,30,0.00,,,0.00,Wunderground v.1.15,2013-07-04 04:45:00,
2013-07-03 23:50:00,74.8,41.3,29.78,South,180,2.0,-999.0,30,0.00,,,0.00,Wunderground v.1.15,2013-07-04 04:50:00,
2013-07-03 23:55:00,74.8,41.3,29.78,South,180,2.0,-999.0,30,0.00,,,0.00,Wunderground v.1.15,2013-07-04 04:55:00,